This demonstration page uses our WeatherBlox Daily Observations layout. Learn more.

Left ArrowRight Arrow

Hourly Observations for April 2, 2021

Temp ( °F °C ) Dew Point ( °F °C ) Humidity (%) Winds ( mph kmh ) Pressure ( in mb ) Visibility ( mi km ) Precip ( " mm )
12:53 am 00:53 Clear 44 6.7 24 -4.4 45 45 SSE 14 22 30.19 1022 10 16 0.00 0.00
1:53 am 01:53 Hazy 43 6.1 23 -5 45 45 S 15 24 30.17 1022 6 10 0.00 0.00
2:53 am 02:53 Hazy 43 6.1 23 -5 45 45 S 17 28 30.14 1021 5 8 0.00 0.00
3:53 am 03:53 Hazy 41 5 23 -5 49 49 S 16 26 30.13 1020 6 10 0.00 0.00
4:53 am 04:53 Hazy 41 5 23 -5 49 49 S 15 24 30.11 1020 6 10 0.00 0.00
5:53 am 05:53 Clear 41 5 24 -4.4 51 51 S 15 24 30.09 1019 7 11 0.00 0.00
6:53 am 06:53 Clear 40 4.4 25 -3.9 55 55 S 14 22 30.09 1019 9 14 0.00 0.00
7:53 am 07:53 Sunny 41 5 26 -3.3 55 55 S 13 20 30.10 1019 10 16 0.00 0.00
8:53 am 08:53 Sunny 45 7.2 27 -2.8 49 49 S 15 24 30.09 1019 10 16 0.00 0.00
9:53 am 09:53 Sunny 50 10 28 -2.2 43 43 SSW 17 28 30.09 1019 10 16 0.00 0.00
10:53 am 10:53 Sunny 56 13.3 29 -1.7 36 36 SSW 23 37 30.07 1018 10 16 0.00 0.00
11:53 am 11:53 Sunny 60 15.6 30 -1.1 32 32 SSW 17 28 30.06 1018 10 16 0.00 0.00
12:53 pm 12:53 Sunny 64 17.8 30 -1.1 28 28 SSW 23 37 30.02 1017 10 16 0.00 0.00
1:53 pm 13:53 Sunny 68 20 31 -0.6 25 25 SSW 14 22 29.99 1016 10 16 0.00 0.00
2:53 pm 14:53 Sunny 73 22.8 31 -0.6 21 21 SSW 22 35 29.96 1015 10 16 0.00 0.00
3:53 pm 15:53 Sunny 74 23.3 31 -0.6 20 20 SSW 18 30 29.95 1014 10 16 0.00 0.00
4:53 pm 16:53 Sunny 75 23.9 30 -1.1 19 19 SSW 22 35 29.95 1014 10 16 0.00 0.00
5:53 pm 17:53 Sunny 74 23.3 30 -1.1 20 20 SSW 16 26 29.95 1014 10 16 0.00 0.00
6:53 pm 18:53 Sunny 72 22.2 30 -1.1 21 21 SSW 22 35 29.95 1014 10 16 0.00 0.00
7:53 pm 19:53 Sunny 68 20 31 -0.6 25 25 S 14 22 29.97 1015 10 16 0.00 0.00
8:53 pm 20:53 Clear 63 17.2 32 0 31 31 S 16 26 29.97 1015 10 16 0.00 0.00
9:53 pm 21:53 Clear 61 16.1 33 0.6 35 35 S 16 26 29.99 1016 10 16 0.00 0.00
10:53 pm 22:53 Clear 58 14.4 34 1.1 41 41 S 15 24 30.00 1016 10 16 0.00 0.00
11:53 pm 23:53 Clear 57 13.9 34 1.1 42 42 SSW 13 20 30.01 1016 10 16 0.00 0.00

Powered by AerisWeather